Weather History for Banff, AB

Change the Weather History Date:

Saturday, September 21, 2013

  Actual Average Record
Temperature  
Mean Temperature 46 °F -  
Max Temperature 61 °F - - ()
Min Temperature 31 °F - - ()
Degree Days  
Heating Degree Days 19    
Moisture  
Dew Point 36 °F    
Average Humidity 72    
Maximum Humidity 99    
Minimum Humidity 37    
Precipitation  
Precipitation 0.04 in - - ()
Sea Level Pressure  
Sea Level Pressure 29.64 in    
Wind  
Wind Speed 4 mph ()    
Max Wind Speed 9 mph    
Max Gust Speed 18 mph    
T = Trace of Precipitation, MM = Missing Value Source: Averaged Metar Reports

Daily Weather History Graph

Daily Weather History Graph

Search for Another Location

Airport:

Trip Planner

Search our weather history database for the weather conditions in past years. The results will help you decide how hot, cold, wet, or windy it might be!

Date:

Astronomy

Sep. 21, 2013 Rise Set
Actual Time 7:27 AM MDT 7:41 PM MDT
Civil Twilight 6:54 AM MDT 8:14 PM MDT
Nautical Twilight 6:14 AM MDT 8:54 PM MDT
Astronomical Twilight 5:33 AM MDT 9:34 PM MDT
Moon 8:32 PM MDT 10:11 AM MDT
Length of Visible Light 13h 20m
Length of Day
12h 14m
Waning Gibbous, 94% of the Moon is Illuminated
Sep 21
Waning Gibbous
Sep 26
Last Quarter
Oct 4
New
Oct 11
First Quarter
Oct 18
Full

Hourly Weather History & Observations

Time (MDT) Temp. Windchill Dew Point Humidity Pressure Visibility Wind Dir Wind Speed Gust Speed Precip Events Conditions
12:00 AM 41.9 °F - 35.8 °F 79% 29.73 in - NW 2.3 mph - N/A   Unknown
1:00 AM 40.3 °F - 34.5 °F 80% 29.72 in - West 2.3 mph - N/A   Unknown
2:00 AM 39.9 °F 37.8 °F 34.7 °F 82% 29.70 in - West 3.5 mph - N/A   Unknown
3:00 AM 37.9 °F 35.5 °F 33.8 °F 85% 29.69 in - SW 3.5 mph - N/A   Unknown
4:00 AM 37.2 °F 32.6 °F 33.4 °F 86% 29.68 in - SW 5.8 mph - N/A   Unknown
5:00 AM 36.1 °F 32.3 °F 33.1 °F 89% 29.66 in - SW 4.6 mph - N/A   Unknown
6:00 AM 34.9 °F 32.0 °F 31.6 °F 88% 29.68 in - SW 3.5 mph - N/A   Unknown
7:00 AM 31.6 °F - 31.1 °F 98% 29.70 in - SSW 2.3 mph - N/A   Unknown
8:00 AM 31.5 °F - 31.1 °F 99% 29.71 in - SW 2.3 mph - N/A   Unknown
9:00 AM 35.6 °F 31.7 °F 32.0 °F 87% 29.69 in - SSW 4.6 mph - N/A   Unknown
10:00 AM 41.9 °F 39.0 °F 33.8 °F 73% 29.66 in - SW 4.6 mph - N/A   Unknown
11:00 AM 49.1 °F - 34.5 °F 57% 29.60 in - SW 5.8 mph - N/A   Unknown
12:00 PM 48.7 °F - 37.2 °F 64% 29.58 in - SW 5.8 mph - N/A   Unknown
1:00 PM 59.5 °F - 37.9 °F 45% 29.51 in - SW 9.2 mph 17.3 mph N/A   Unknown
2:00 PM 61.5 °F - 35.2 °F 37% 29.49 in - WSW 6.9 mph 18.4 mph N/A   Unknown
3:00 PM 58.3 °F - 43.7 °F 58% 29.55 in - West 6.9 mph - N/A   Unknown
4:00 PM 48.0 °F - 42.4 °F 81% 29.65 in - West 5.8 mph - 0.04 in   Unknown
5:00 PM 52.7 °F - 42.3 °F 68% 29.61 in - WSW 5.8 mph - N/A   Unknown
6:00 PM 51.3 °F - 39.6 °F 64% 29.61 in - WSW 6.9 mph - N/A   Unknown
7:00 PM 50.0 °F - 40.5 °F 70% 29.64 in - WSW 4.6 mph - N/A   Unknown
8:00 PM 49.6 °F - 37.6 °F 63% 29.64 in - West 4.6 mph - N/A   Unknown
9:00 PM 48.6 °F - 37.8 °F 66% 29.62 in - WSW 5.8 mph - N/A   Unknown
10:00 PM 48.2 °F - 36.0 °F 63% 29.61 in - WSW 4.6 mph - N/A   Unknown
11:00 PM 48.9 °F - 34.3 °F 57% 29.62 in - West 5.8 mph - N/A   Unknown